Regional Weather Roundup
Issued by NWS Newport/Morehead, NC

Current Version | Previous Version | Graphics & Text | Print | Product List | Glossary Off
Versions: 1 2 3 4 5 6 7 8 9 10 11 12 13 14 15 16 17 18 19 20 21 22 23 24 25 26 27 28 29 30 31 32 33 34 35 36 37 38 39 40 41 42 43 44 45 46 47 48 49 50

000
ASUS42 KMHX 131410
RWRMHX
WEATHER ROUNDUP FOR EASTERN NORTH CAROLINA
NATIONAL WEATHER SERVICE NEWPORT/MOREHEAD CITY NC
1000 AM EDT SUN JUL 13 2014

NOTE: "FAIR" INDICATES FEW OR NO CLOUDS BELOW 12,000 FEET
WITH NO SIGNIFICANT WEATHER AND/OR OBSTRUCTIONS TO VISIBILITY

NCZ015>017-031-032-045>047-102-103-131500-
NORTH COAST

CITY           SKY/WX    TMP DP  RH WIND       PRES   REMARKS
EDENTON        MOSUNNY   79  74  85 S6        30.15S
ELIZABETH CITY MOSUNNY   81  73  76 SW7       30.14F
KITTY HAWK     SUNNY     81  71  71 CALM      30.13F
MANTEO         NOT AVBL

$$

NCZ045>047-081-094-103-104-131500-
CENTRAL COAST

CITY           SKY/WX    TMP DP  RH WIND       PRES   REMARKS
FRISCO         SUNNY     83  71  67 VRB3      30.16S
SWANQUARTER      N/A     82 N/A N/A SW3       30.12S

$$

NCZ095-097-098-100-101-131500-
SOUTHERN COAST

CITY           SKY/WX    TMP DP  RH WIND       PRES   REMARKS
BEAUFORT       SUNNY     82  74  76 N5        30.16S
CEDAR ISLAND     N/A     82 N/A N/A NW5       30.21S
JACKSONVILLE   MOSUNNY   81  72  74 SW5       30.15F
NEWPORT        NOT AVBL
PINEY ISLAND   MOSUNNY   83  74  74 W3        30.15F
WILMINGTON     PTSUNNY   84  73  69 W6        30.16S


$$

NCZ011>013-027>030-043-044-078>080-089-090>093-098-131500-
COASTAL PLAIN

CITY           SKY/WX    TMP DP  RH WIND       PRES   REMARKS
AHOSKIE        MOSUNNY   80  73  80 CALM      30.14S
CLINTON        SUNNY     80  73  77 SW6       30.16S
ELIZABETHTOWN  SUNNY     80  71  72 S3        30.15F
GOLDSBORO      SUNNY     81  74  78 SW8       30.13F
GREENVILLE     MOSUNNY   81  73  78 SW5       30.16S
HAVELOCK       MOSUNNY   80  71  74 NW3       30.16F
KENANSVILLE    SUNNY     80  70  70 W3        30.16S
KINSTON        MOSUNNY   81  72  74 S7        30.16S
NEW BERN       MOSUNNY   85  72  65 CALM      30.16F
RICHLANDS      MOSUNNY   82  72  69 SW7       30.16S
ROANOKE RAPIDS NOT AVBL
ROCKY MOUNT    MOSUNNY   79  73  82 SW6       30.15S
WASHINGTON     MOSUNNY   80  71  75 S6        30.16S
WHITEVILLE     MOSUNNY   82  71  71 W3        30.15S

$$

AMZ130-135-150-152-154-156-158-170-250-252-270-ANZ085-086-088-633-658-670-131500-
MARINE OBSERVATIONS

STATION/POSITION TIME  TEMP    WIND        PRES    WAVE   SWELL
                       AIR SEA DIR/SP/G            HT/PER HT/PER
                 (UTC) (F)     (DEG/KT/KT) (MB)    (FT/S) (FT/S)
CHESAPEAKE LIGHT NOT AVBL
BUOY 44014       1400   75 76  220/  4/  4 1020.5    2/ 7   2/ 7
DUCK             1400   78 69  130/  5/  6 1019.8
2E DUCK          1400                        N/A     2/ 7
OREGON INLET     1400   78 78  200/  2/  3 1021.0
BUOY 44095       1400      75                N/A     2/ 7
HATTERAS CG      1400   80 81  350/  4/  5 1021.6
DIAMOND BUOY     1400          VRB  4/  6  1021.2    2/ 8   2/ 8
17S OCRACOKE INL NOT AVBL
CAPE LOOKOUT     NOT AVBL
BEAUFORT LAB     1400   80 82   10/  4/  5 1020.8
30 SE NEW RIVER  1400   80 82  360/  4/  6 1021.6    2/ 8   2/ 8
5 SE WRIGHTSVILL 1300   75 82  360/  6/  8 1021.9
FRYING PAN BUOY  NOT AVBL
BUOY 41001       NOT AVBL
BUOY 41002       1254   80 83  310/  4/  4 1022.1    2/ 7   2/ 7
BUOY 41004       1400   77 82  100/  6/  8 1020.8    2/ 6   2/ 6

$$


USA.gov is the U.S. government's official web portal to all federal, state and local government web resources and services.